[[{"header":{"parameterUnit":"m.s-1","parameterCategory":1,"la1":30.2991,"la2":30.254,"lo1":-89.0895,"lo2":-89.0444,"dy":0.0017,"dx":0.0017,"nx":28,"ny":28,"refTime":"2024-02-07T09:00:00:Z","depth":0,"parameterNumber":2,"parameterNumberName":"U-component_of_WINDS"},"data":[0,0,0,0,0,0,0,0,0,0,0,0,0,0,0,0,0,0,0,0,0,0,0,0,0,0,0,0,0,0,0,0,0,0,0,0,0,0,0,0,0,0,0,0,0,0,0,0,0,0,0,0,0,0,0,0,0,0,-1.8459,-1.8459,0,-1.8484,-1.8484,-1.8485,-1.8423,-1.8421,-1.8419,-1.8417,-1.8445,-1.8448,-1.845,0,0,0,0,0,0,0,0,0,0,0,0,0,-1.8359,-1.8361,-1.8459,-1.8459,-1.8459,-1.8484,-1.8484,-1.8485,-1.8423,-1.8421,-1.8419,-1.8416,-1.8445,-1.8448,-1.8451,0,0,0,0,0,0,0,0,0,0,0,0,0,-1.8395,-1.8362,-1.8459,-1.8432,-1.843,-1.8484,-1.8484,-1.8485,-1.8424,-1.8421,-1.8418,-1.8415,-1.8444,-1.8447,-1.8451,-1.8533,0,0,-1.8463,-1.8464,0,0,0,0,0,0,0,0,-1.8393,-1.8399,-1.8435,-1.8434,-1.8431,-1.8447,-1.8459,-1.8501,-1.8425,-1.8426,-1.8417,-1.8414,-1.8449,-1.8452,-1.8463,-1.8534,-1.8536,-1.8463,-1.8465,-1.8467,-1.8468,0,0,0,0,0,0,0,-1.8391,-1.8398,-1.8469,-1.8436,-1.8434,-1.8419,-1.8421,-1.8467,-1.8454,-1.8426,-1.8421,-1.8425,-1.8447,-1.8459,-1.8463,-1.8536,-1.8463,-1.8466,-1.8469,-1.847,-1.8676,-1.8679,0,0,0,0,0,0,-1.8392,-1.8396,-1.8468,-1.847,-1.8405,-1.8423,-1.8425,-1.8445,-1.8453,-1.8451,-1.8428,-1.8422,-1.8454,-1.8459,-1.8464,-1.856,-1.8467,-1.8471,-1.8473,-1.8672,-1.8676,-1.868,0,0,0,0,0,0,-1.839,-1.8399,-1.8467,-1.8432,-1.8439,-1.8428,-1.8451,-1.8447,-1.846,-1.8454,-1.8452,-1.8443,-1.8452,-1.8459,-1.8516,-1.856,-1.8472,-1.8476,-1.8669,-1.8674,-1.8678,-1.8754,0,0,0,0,0,0,-1.8387,-1.8398,-1.8429,-1.8433,-1.8441,-1.8519,-1.8454,-1.845,-1.8466,-1.8459,-1.8468,-1.8466,-1.845,-1.8511,-1.852,-1.8564,-1.8479,-1.8665,-1.8671,-1.8677,-1.8748,-1.8761,-1.8772,0,0,0,0,0,-1.8384,-1.845,-1.8431,-1.844,-1.848,-1.8521,-1.8526,-1.8506,-1.847,-1.8501,-1.8497,-1.8466,-1.8554,-1.8517,-1.8527,-1.8573,-1.8662,-1.8669,-1.8676,-1.8742,-1.8758,-1.8772,0,0,0,0,0,0,-1.8454,-1.845,-1.8429,-1.8499,-1.8511,-1.8511,-1.855,-1.8524,-1.8547,-1.854,-1.8514,-1.8516,-1.8579,-1.8581,-1.8541,-1.8653,-1.8602,-1.8611,-1.8649,-1.8664,-1.8676,-1.8675,-1.8482,0,0,0,0,0,-1.8477,-1.8511,-1.8506,-1.8568,-1.8575,-1.8561,-1.8579,-1.8562,-1.8574,-1.8579,-1.8579,-1.8592,-1.8622,-1.8643,-1.8671,-1.8747,-1.8748,-1.8784,-1.8796,-1.8806,-1.8815,-1.8855,-1.8871,-1.8703,-1.8703,-1.8703,0,0,-1.8526,-1.8528,-1.8551,-1.8582,-1.8589,-1.8625,-1.8566,-1.8607,-1.8633,-1.8585,-1.8639,-1.864,-1.8653,-1.872,-1.875,-1.8724,-1.8861,-1.8815,-1.8823,-1.8827,-1.8864,-1.888,-1.8894,-1.8708,-1.8707,-1.8706,0,0,-1.8633,-1.8638,-1.869,-1.8698,-1.871,-1.87,-1.8712,-1.8716,-1.8715,-1.8768,-1.8733,-1.8764,-1.8817,-1.8828,-1.884,-1.895,-1.8922,-1.896,-1.9024,-1.9064,-1.9077,-1.9089,-1.9128,-1.9143,-1.8968,-1.8968,-1.8969,0,-1.8693,-1.8745,-1.872,-1.8763,-1.8778,-1.8734,-1.8787,-1.8796,-1.8817,-1.8828,-1.8798,-1.8863,-1.8869,-1.8938,-1.8965,-1.8976,-1.899,-1.8959,-1.9077,-1.9089,-1.9099,-1.9136,-1.9151,-1.8973,-1.8972,-1.8972,-1.8972,0,-1.8818,-1.8854,-1.8895,-1.8914,-1.8933,-1.8981,-1.8964,-1.8986,-1.8967,-1.8961,-1.9016,-1.9021,-1.9048,-1.9063,-1.9046,-1.913,-1.9113,-1.9081,-1.903,-1.912,-1.9155,-1.9169,-1.8979,-1.8978,-1.8976,-1.8975,0,0,-1.8971,-1.8975,-1.8991,-1.8999,-1.9007,-1.9036,-1.9081,-1.9107,-1.9127,-1.9142,-1.9179,-1.9225,-1.9194,-1.9208,-1.9191,-1.9226,-1.9313,-1.9189,-1.9189,-1.9212,-1.9406,-1.943,-1.9447,-1.9294,-1.9296,-1.9299,-1.9405,0,-1.9077,-1.9154,-1.9133,-1.921,-1.9244,-1.9203,-1.9242,-1.9252,-1.9247,-1.9275,-1.9269,-1.9302,-1.9259,-1.9267,-1.93,-1.9296,-1.9351,-1.9287,-1.9329,-1.9331,-1.9328,-1.9465,-1.9492,-1.9592,-1.9418,-1.942,-1.9422,0,-1.9212,-1.9231,-1.9312,-1.9314,-1.9327,-1.9363,-1.9385,-1.9412,-1.9422,-1.9416,-1.9431,-1.9407,-1.9451,-1.9399,-1.946,-1.9417,-1.9433,-1.9433,-1.9437,-1.9441,-1.9382,-1.9473,-1.9623,-1.9638,-1.9443,-1.9441,-1.944,0,-1.9316,-1.9362,-1.9416,-1.9424,-1.9428,-1.9454,-1.9457,-1.9464,-1.9481,-1.9501,-1.9511,-1.9536,-1.9549,-1.9569,-1.9552,-1.9515,-1.9616,-1.9562,-1.9613,-1.9613,-1.9637,-1.9636,-1.9792,-1.9646,-1.9646,-1.9646,-1.9645,0,-1.9438,-1.9489,-1.9463,-1.9496,-1.9552,-1.9527,-1.9583,-1.9581,-1.9587,-1.962,-1.9586,-1.9617,-1.9592,-1.9621,-1.9608,-1.9661,-1.9668,-1.9664,-1.966,-1.9668,-1.9668,-1.9678,-1.9671,-1.9649,-1.9649,-1.9648,-1.9647,0,-1.9564,-1.9549,-1.9605,-1.9603,-1.9604,-1.9645,-1.9644,-1.9675,-1.9667,-1.9708,-1.9717,-1.9704,-1.9737,-1.9721,-1.9755,-1.9746,-1.9815,-1.9801,-1.9811,-1.9808,-1.9859,-1.9855,-2.0028,-2.0049,-1.9889,-1.9891,-1.9892,0,-1.9643,-1.9681,-1.9683,-1.9702,-1.9707,-1.9738,-1.9754,-1.9731,-1.9749,-1.9763,-1.9793,-1.9822,-1.9844,-1.9898,-1.9892,-1.9918,-1.9905,-1.9964,-1.9909,-1.9915,-1.9906,-1.9904,-1.9908,-1.9975,-1.9977,-1.9979,-1.998,0,-1.9784,-1.9774,-1.9799,-1.9822,-1.9842,-1.9859,-1.9872,-1.989,-1.9866,-1.9889,-1.9921,-1.9939,-1.9973,-2.0002,-2.0024,-2.0028,-2.0001,-1.9997,-2.001,-2.0018,-2.0022,-2.0021,-1.9842,-1.9993,-1.9992,-1.9991,-1.999,-1.999,-1.9889,-1.9921,-1.9927,-1.9956,-1.9963,-1.9977,-2.0005,-2.0,-2.0026,-2.0052,-2.0036,-2.0074,-2.0082,-2.0109,-2.0116,-2.0145,-2.0122,-2.0141,-2.0146,-2.0151,-2.0158,-2.0017,-2.0149,-2.0149,-2.0149,-2.0148,-2.0148,0,-2.0029,-2.0031,-2.0057,-2.0077,-2.01,-2.007,-2.0083,-2.0105,-2.0138,-2.0148,-2.017,-2.0206,-2.0235,-2.0231,-2.0256,-2.0281,-2.0269,-2.0288,-2.0287,-2.0288,-2.0177,-2.0164,-2.0297,-2.0297,-2.0297,-2.0297,-2.0297,-2.0297,-2.0105,-2.0157,-2.0148,-2.0203,-2.0204,-2.024,-2.025,-2.0262,-2.027,-2.0312,-2.0335,-2.0331,-2.0336,-2.0361,-2.0386,-2.0384,-2.0395,-2.0419,-2.0413,-2.031,-2.0296,-2.0281,-2.0268,-2.0422,-2.0422,-2.0521,-2.0522,-2.0522]},{"header":{"parameterUnit":"m.s-1","parameterCategory":1,"la1":30.2991,"la2":30.254,"lo1":-89.0895,"lo2":-89.0444,"dy":0.0017,"dx":0.0017,"nx":28,"ny":28,"refTime":"2024-02-07T09:00:00:Z","depth":0,"parameterNumber":3,"parameterNumberName":"V-component_of_WINDS"},"data":[0,0,0,0,0,0,0,0,0,0,0,0,0,0,0,0,0,0,0,0,0,0,0,0,0,0,0,0,0,0,0,0,0,0,0,0,0,0,0,0,0,0,0,0,0,0,0,0,0,0,0,0,0,0,0,0,0,0,-2.7806,-2.7807,0,-2.7833,-2.7834,-2.7834,-2.7798,-2.7797,-2.7796,-2.7794,-2.782,-2.7822,-2.7824,0,0,0,0,0,0,0,0,0,0,0,0,0,-2.7721,-2.7722,-2.7806,-2.7807,-2.7807,-2.7833,-2.7834,-2.7834,-2.7798,-2.7797,-2.7795,-2.7794,-2.7819,-2.7821,-2.7824,0,0,0,0,0,0,0,0,0,0,0,0,0,-2.7754,-2.7723,-2.7806,-2.7793,-2.7792,-2.7833,-2.7834,-2.7834,-2.7799,-2.7797,-2.7795,-2.7793,-2.7819,-2.7821,-2.7824,-2.788,0,0,-2.7833,-2.7834,0,0,0,0,0,0,0,0,-2.7752,-2.7757,-2.7794,-2.7794,-2.7793,-2.7811,-2.7813,-2.7849,-2.7799,-2.7796,-2.7794,-2.7792,-2.7818,-2.7821,-2.783,-2.7881,-2.7882,-2.7833,-2.7835,-2.7836,-2.7837,0,0,0,0,0,0,0,-2.775,-2.7756,-2.7817,-2.7795,-2.7794,-2.7784,-2.7786,-2.782,-2.7817,-2.7796,-2.7794,-2.7797,-2.7817,-2.7827,-2.783,-2.7882,-2.7833,-2.7835,-2.7837,-2.7838,-2.7979,-2.7981,0,0,0,0,0,0,-2.7749,-2.7754,-2.7816,-2.7818,-2.7767,-2.7787,-2.779,-2.7807,-2.7817,-2.7817,-2.7799,-2.7796,-2.7824,-2.7827,-2.7831,-2.7896,-2.7836,-2.7838,-2.784,-2.7977,-2.7979,-2.7982,0,0,0,0,0,0,-2.7748,-2.7755,-2.7815,-2.7785,-2.7792,-2.7791,-2.781,-2.7808,-2.7818,-2.7819,-2.7818,-2.781,-2.7822,-2.7827,-2.7868,-2.7897,-2.784,-2.7842,-2.7974,-2.7978,-2.798,-2.8027,0,0,0,0,0,0,-2.7745,-2.7755,-2.7777,-2.7786,-2.7794,-2.7852,-2.7811,-2.781,-2.7824,-2.7819,-2.7829,-2.7829,-2.7821,-2.7864,-2.7871,-2.7899,-2.7844,-2.7972,-2.7976,-2.798,-2.8023,-2.8032,-2.8039,0,0,0,0,0,-2.7743,-2.7789,-2.7778,-2.7786,-2.7822,-2.7854,-2.7858,-2.7849,-2.7826,-2.7848,-2.7848,-2.7829,-2.7893,-2.7868,-2.7876,-2.7906,-2.797,-2.7975,-2.7979,-2.802,-2.803,-2.8039,0,0,0,0,0,0,-2.7783,-2.779,-2.7778,-2.7829,-2.7841,-2.7848,-2.7875,-2.786,-2.7879,-2.7874,-2.7861,-2.7863,-2.7906,-2.791,-2.7883,-2.796,-2.7927,-2.7934,-2.7956,-2.7965,-2.7973,-2.7971,-2.7847,0,0,0,0,0,-2.7798,-2.7825,-2.7829,-2.7873,-2.788,-2.7877,-2.7891,-2.7882,-2.7894,-2.7899,-2.7902,-2.7913,-2.7936,-2.7951,-2.7972,-2.8024,-2.8025,-2.8048,-2.8056,-2.8062,-2.8068,-2.8094,-2.8104,-2.7997,-2.7997,-2.7997,0,0,-2.7829,-2.7836,-2.7854,-2.7882,-2.789,-2.7917,-2.7881,-2.7912,-2.7931,-2.7903,-2.7941,-2.7944,-2.7956,-2.8002,-2.8023,-2.8007,-2.8097,-2.8068,-2.8073,-2.8075,-2.81,-2.811,-2.8119,-2.8,-2.7999,-2.7999,0,0,-2.7899,-2.7908,-2.7945,-2.7954,-2.7967,-2.7965,-2.7974,-2.7982,-2.7983,-2.8022,-2.8001,-2.8023,-2.8063,-2.8072,-2.8081,-2.8154,-2.8136,-2.8161,-2.8201,-2.8227,-2.8236,-2.8243,-2.8268,-2.8277,-2.8166,-2.8166,-2.8166,0,-2.7935,-2.7976,-2.7966,-2.7997,-2.801,-2.7986,-2.8023,-2.8032,-2.8051,-2.806,-2.8042,-2.809,-2.8096,-2.8144,-2.8161,-2.817,-2.8179,-2.8159,-2.8236,-2.8243,-2.825,-2.8273,-2.8282,-2.8169,-2.8169,-2.8168,-2.8168,0,-2.802,-2.8048,-2.8076,-2.8096,-2.8111,-2.8146,-2.8139,-2.8156,-2.8146,-2.8145,-2.8184,-2.819,-2.8212,-2.8222,-2.8213,-2.8268,-2.8257,-2.8238,-2.8205,-2.8263,-2.8284,-2.8293,-2.8173,-2.8172,-2.8171,-2.8171,0,0,-2.8116,-2.8129,-2.814,-2.8148,-2.816,-2.8181,-2.8214,-2.8235,-2.8249,-2.8263,-2.8289,-2.8322,-2.8304,-2.8315,-2.8306,-2.8329,-2.8384,-2.8306,-2.8306,-2.8319,-2.8444,-2.8458,-2.8469,-2.8373,-2.8375,-2.8376,-2.8443,0,-2.8185,-2.8242,-2.8233,-2.8288,-2.8313,-2.829,-2.8318,-2.8329,-2.8328,-2.8348,-2.8347,-2.8371,-2.8345,-2.8352,-2.8373,-2.8373,-2.8409,-2.8368,-2.8396,-2.8397,-2.8393,-2.8481,-2.8496,-2.8559,-2.8451,-2.8453,-2.8454,0,-2.8274,-2.8291,-2.8348,-2.8356,-2.8366,-2.8391,-2.8409,-2.843,-2.844,-2.8438,-2.845,-2.8437,-2.8468,-2.8435,-2.8477,-2.8449,-2.846,-2.8461,-2.8463,-2.8465,-2.8428,-2.8484,-2.8579,-2.8588,-2.8467,-2.8466,-2.8465,0,-2.8337,-2.8375,-2.8413,-2.8421,-2.8431,-2.8449,-2.8454,-2.8463,-2.8476,-2.8491,-2.8499,-2.8518,-2.8528,-2.8542,-2.8534,-2.8511,-2.8577,-2.8544,-2.8575,-2.8575,-2.8589,-2.8589,-2.8687,-2.8598,-2.8598,-2.8598,-2.8597,0,-2.8415,-2.845,-2.8442,-2.8465,-2.8504,-2.8493,-2.8531,-2.8533,-2.8541,-2.8564,-2.8545,-2.8567,-2.8555,-2.8575,-2.8569,-2.8604,-2.8609,-2.8607,-2.8605,-2.8609,-2.8609,-2.8615,-2.861,-2.86,-2.86,-2.8599,-2.8599,0,-2.8492,-2.8488,-2.8528,-2.8534,-2.8537,-2.8565,-2.8569,-2.8591,-2.8589,-2.8618,-2.8624,-2.862,-2.8643,-2.8636,-2.8661,-2.8657,-2.8701,-2.8693,-2.8698,-2.8695,-2.8727,-2.8724,-2.8832,-2.8845,-2.8749,-2.8749,-2.875,0,-2.8542,-2.8568,-2.8577,-2.8592,-2.8598,-2.8621,-2.8634,-2.8624,-2.8638,-2.8651,-2.8671,-2.8692,-2.8709,-2.8747,-2.8746,-2.8764,-2.8756,-2.8793,-2.8759,-2.8761,-2.8756,-2.8754,-2.8756,-2.88,-2.8801,-2.8802,-2.8802,0,-2.863,-2.8626,-2.8646,-2.8665,-2.8681,-2.8695,-2.8708,-2.872,-2.8711,-2.8727,-2.8751,-2.8764,-2.8789,-2.881,-2.8827,-2.8831,-2.8815,-2.8813,-2.8821,-2.8825,-2.8826,-2.8824,-2.8715,-2.881,-2.881,-2.8809,-2.8809,-2.8808,-2.8694,-2.8716,-2.8726,-2.8748,-2.8756,-2.8768,-2.8789,-2.8789,-2.8808,-2.8828,-2.8821,-2.8848,-2.8856,-2.8877,-2.8883,-2.8903,-2.8889,-2.8901,-2.8904,-2.8906,-2.891,-2.8823,-2.8906,-2.8906,-2.8905,-2.8905,-2.8905,0,-2.878,-2.8785,-2.8806,-2.8824,-2.8841,-2.8825,-2.8838,-2.8853,-2.8877,-2.8886,-2.8903,-2.8929,-2.895,-2.895,-2.8969,-2.8984,-2.8977,-2.8989,-2.8988,-2.8989,-2.8922,-2.8913,-2.8995,-2.8995,-2.8995,-2.8995,-2.8995,-2.8995,-2.8827,-2.8864,-2.8861,-2.8901,-2.8905,-2.8931,-2.894,-2.895,-2.8958,-2.8988,-2.9005,-2.9005,-2.9011,-2.9029,-2.9047,-2.9046,-2.9053,-2.9068,-2.9065,-2.9002,-2.8993,-2.8985,-2.8976,-2.907,-2.907,-2.9129,-2.913,-2.913]}]]